Terminal Aerodrome Forecast
Issued by NWS

Home | Current Version | Previous Version | Graphics & Text | Print | Product List | Glossary On
Versions: 1 2 3 4 5 6 7 8 9 10 11 12 13 14 15 16 17 18 19 20 21
442
FTUS43 KFGF 041023 AAB
TAFBJI
TAF AMD
KBJI 041023Z 0410/0506 30007KT P6SM OVC035
      TEMPO 0410/0412 -SN BKN013
     FM041300 VRB05KT P6SM OVC015
     FM042100 30008KT P6SM BKN035
     FM050500 24004KT P6SM SCT070=

USA.gov is the U.S. government's official web portal to all federal, state and local government web resources and services.